GW0502 Weather Reports


Display with metric or nautical units.
time (UTC)temp
F
wind
direction
speed
MPH
gust
MPH
rain 1hr
in
rain 24hr
in
rain mn
in
humidity
%
barometer
mb
20260507105137 45 17 0.0 0.0 0.00 0.12 0.12 99 1006.4
20260507104634 45 9 0.0 0.0 0.00 0.12 0.12 99 1006.4
20260507104131 45 305 2.0 3.0 0.00 0.12 0.12 99 1006.5
20260507103627 45 341 1.0 1.0 0.00 0.12 0.12 99 1006.6
20260507103124 45 340 3.0 3.0 0.00 0.12 0.12 99 1006.3
20260507102620 44 9 0.0 1.0 0.00 0.12 0.12 99 1006.0
20260507102116 45 1 2.0 2.0 0.00 0.12 0.12 99 1005.8
20260507101613 44 17 0.0 0.0 0.00 0.12 0.12 99 1006.0
20260507101109 44 11 1.0 1.0 0.00 0.12 0.12 99 1006.2
20260507100606 44 2 2.0 2.0 0.00 0.12 0.12 99 1005.9
20260507100104 44 15 3.0 3.0 0.00 0.12 0.12 99 1005.9
20260507095602 44 19 1.0 2.0 0.00 0.12 0.12 99 1005.8
20260507095058 44 22 1.0 1.0 0.00 0.12 0.12 99 1005.9
20260507094554 44 49 2.0 2.0 0.00 0.12 0.12 99 1005.9
20260507094051 44 3 0.0 1.0 0.00 0.12 0.12 99 1006.0
20260507093549 44 359 1.0 1.0 0.00 0.12 0.12 99 1006.0
20260507093047 44 331 3.0 3.0 0.00 0.12 0.12 99 1005.7
20260507092543 44 11 2.0 2.0 0.00 0.12 0.12 99 1005.5
20260507092040 45 14 1.0 2.0 0.00 0.12 0.12 99 1006.0
20260507091537 45 22 0.0 0.0 0.00 0.12 0.12 99 1005.8
20260507091033 45 325 2.0 2.0 0.00 0.12 0.12 99 1006.0
20260507090529 45 15 0.0 0.0 0.00 0.12 0.12 99 1005.9
20260507090026 45 5 2.0 3.0 0.00 0.12 0.12 99 1006.4
20260507085523 45 333 2.0 2.0 0.00 0.12 0.12 99 1006.1
20260507085020 45 11 0.0 1.0 0.00 0.12 0.12 99 1005.6
20260507084516 46 12 1.0 1.0 0.00 0.12 0.12 99 1005.5
20260507084014 46 10 1.0 2.0 0.00 0.12 0.12 99 1005.7
20260507083510 46 10 2.0 2.0 0.00 0.12 0.12 99 1005.6
20260507083007 46 14 1.0 2.0 0.00 0.12 0.12 99 1005.6
20260507082503 46 19 1.0 1.0 0.00 0.12 0.12 99 1005.3
20260507081959 46 17 3.0 3.0 0.00 0.12 0.12 99 1005.4
20260507081455 46 359 1.0 1.0 0.00 0.12 0.12 99 1005.6
20260507080953 46 14 4.0 5.0 0.00 0.12 0.12 99 1005.3
20260507080448 46 242 2.0 3.0 0.00 0.12 0.12 99 1005.6
20260507075944 46 353 3.0 3.0 0.00 0.12 0.12 99 1005.4
20260507075440 46 356 1.0 1.0 0.00 0.12 0.12 99 1005.5
20260507074937 46 18 1.0 1.0 0.00 0.12 0.12 99 1005.5
20260507074433 46 23 3.0 3.0 0.00 0.12 0.12 99 1005.5
20260507073931 46 353 4.0 6.0 0.00 0.12 0.12 99 1005.7
20260507073422 46 40 3.0 3.0 0.00 0.12 0.12 99 1005.5
20260507072919 46 29 3.0 5.0 0.00 0.12 0.12 99 1005.5
20260507072417 46 35 1.0 1.0 0.00 0.12 0.12 99 1005.5
20260507071914 46 16 0.0 0.0 0.00 0.12 0.12 99 1005.3
20260507071411 46 18 0.0 1.0 0.00 0.12 0.12 99 1005.0
20260507070907 46 307 3.0 3.0 0.00 0.12 0.12 99 1005.2
20260507070405 46 22 2.0 2.0 0.00 0.12 0.12 99 1004.9
20260507065901 47 30 0.0 1.0 0.00 0.12 0.12 99 1005.1
20260507065358 47 50 3.0 3.0 0.00 0.12 0.12 99 1005.0
20260507064855 47 6 1.0 2.0 0.00 0.12 0.12 99 1005.2
20260507064353 47 353 3.0 3.0 0.00 0.12 0.12 99 1004.9
20260507063851 47 5 2.0 2.0 0.00 0.12 0.12 99 1005.1
20260507063348 47 291 4.0 6.0 0.05 0.12 0.12 99 1004.7
20260507062845 47 11 5.0 7.0 0.05 0.12 0.12 99 1004.8
20260507062341 47 356 5.0 6.0 0.00 0.11 0.11 99 1004.3
20260507061839 47 6 1.0 2.0 0.00 0.11 0.11 99 1004.7
20260507061337 47 34 2.0 2.0 0.00 0.11 0.11 99 1004.6
20260507060835 47 31 6.0 7.0 0.00 0.11 0.11 99 1004.8
20260507060332 47 26 4.0 6.0 0.00 0.11 0.11 99 1004.4
20260507055828 47 69 3.0 5.0 0.00 0.11 0.11 99 1004.6
20260507055323 47 28 4.0 5.0 0.00 0.11 0.11 99 1004.1
20260507054821 47 68 5.0 9.0 0.00 0.11 0.11 99 1004.7
20260507054316 48 48 3.0 5.0 0.07 0.11 0.11 99 1004.7
20260507053814 48 340 3.0 3.0 0.14 0.11 0.11 99 1004.8
20260507053312 48 352 6.0 7.0 0.12 0.10 0.10 99 1004.8
20260507052811 48 349 3.0 5.0 0.28 0.09 0.09 99 1005.0
20260507052307 48 47 3.0 3.0 0.31 0.08 0.08 99 1005.1
20260507051805 48 243 7.0 10.0 0.12 0.05 0.05 99 1005.9
20260507051302 49 318 6.0 7.0 0.05 0.03 0.03 99 1005.1
20260507050758 50 35 4.0 5.0 0.05 0.03 0.03 99 1004.6
20260507050255 51 14 6.0 8.0 0.00 0.02 0.02 99 1004.1
20260507045751 51 33 0.0 1.0 0.00 0.02 0.02 99 1003.9
20260507045248 51 33 7.0 8.0 0.07 0.02 0.02 99 1004.0
20260507044745 52 339 6.0 9.0 0.00 0.01 0.01 99 1004.1
20260507044242 53 314 13.0 15.0 0.00 0.01 0.01 99 1004.0
20260507043738 53 6 3.0 3.0 0.00 0.01 0.01 99 1003.9
20260507043235 53 265 4.0 5.0 0.00 0.01 0.01 99 1003.9
20260507042731 53 306 3.0 5.0 0.00 0.01 0.01 99 1003.8
20260507042226 53 273 3.0 5.0 0.00 0.01 0.01 99 1003.8
20260507041724 52 266 3.0 3.0 0.05 0.01 0.01 99 1003.8
20260507041220 52 310 2.0 2.0 0.05 0.01 0.01 99 1003.8
20260507040718 52 248 4.0 5.0 0.00 0.00 0.00 99 1003.7
20260507040213 52 273 3.0 3.0 0.07 0.00 0.00 99 1003.9
20260507035709 52 245 5.0 7.0 0.07 0.49 0.49 99 1004.0
20260507035205 51 253 6.0 7.0 0.00 0.48 0.48 99 1004.0
20260507034702 51 273 5.0 6.0 0.00 0.48 0.48 99 1003.7
20260507034200 51 225 4.0 5.0 0.00 0.48 0.48 99 1003.7
20260507033658 51 224 6.0 7.0 0.00 0.48 0.48 99 1003.8
20260507033155 51 246 4.0 5.0 0.00 0.48 0.48 99 1003.9
20260507032652 51 276 4.0 5.0 0.00 0.48 0.48 99 1003.8
20260507032148 51 275 5.0 6.0 0.00 0.48 0.48 99 1003.6
20260507031645 51 244 7.0 9.0 0.07 0.48 0.48 99 1003.7
20260507031141 52 234 6.0 8.0 0.07 0.48 0.48 99 1003.9
20260507030638 52 212 7.0 9.0 0.00 0.47 0.47 99 1003.8
20260507030136 52 233 5.0 6.0 0.00 0.47 0.47 99 1003.8
20260507025633 52 247 8.0 10.0 0.00 0.47 0.47 99 1003.9
20260507025130 52 262 7.0 9.0 0.00 0.47 0.47 99 1004.0
20260507024628 52 254 11.0 14.0 0.00 0.47 0.47 99 1004.0
20260507024125 52 259 8.0 9.0 0.00 0.47 0.47 99 1004.2
20260507023620 52 242 10.0 13.0 0.00 0.47 0.47 99 1004.4
20260507023118 52 233 13.0 18.0 0.00 0.47 0.47 99 1004.6
20260507022615 52 245 9.0 14.0 0.00 0.47 0.47 99 1004.8
20260507022110 52 255 11.0 15.0 0.00 0.47 0.47 99 1004.6
20260507021607 53 239 8.0 9.0 0.00 0.47 0.47 99 1004.8
20260507021103 53 251 16.0 22.0 0.00 0.47 0.47 99 1004.7
20260507020602 53 237 10.0 14.0 0.00 0.47 0.47 99 1004.9
20260507020057 53 254 11.0 14.0 0.05 0.47 0.47 99 1004.7
20260507015555 53 240 11.0 15.0 0.05 0.47 0.47 99 1005.0
20260507015047 54 243 10.0 13.0 0.00 0.46 0.46 99 1004.9
20260507014543 54 209 8.0 10.0 0.07 0.46 0.46 99 1005.0
20260507014033 54 236 11.0 13.0 0.07 0.46 0.46 99 1005.0
20260507013530 54 243 6.0 7.0 0.00 0.45 0.45 99 1005.3
20260507013027 54 249 6.0 7.0 0.05 0.45 0.45 99 1005.2
20260507012524 54 207 6.0 8.0 0.05 0.45 0.45 99 1005.3
20260507012020 54 233 6.0 7.0 0.05 0.45 0.45 99 1005.4
20260507011518 54 246 5.0 7.0 0.00 0.44 0.44 99 1005.4
20260507011014 54 270 4.0 6.0 0.00 0.44 0.44 99 1005.4
20260507010508 54 269 10.0 13.0 0.00 0.44 0.44 99 1005.6
20260507010005 54 230 6.0 8.0 0.00 0.44 0.44 99 1005.8
20260507005503 54 251 6.0 6.0 0.00 0.44 0.44 99 1005.9
20260507004959 54 245 11.0 14.0 0.00 0.44 0.44 99 1005.8
20260507004456 54 203 9.0 10.0 0.00 0.44 0.44 99 1005.6
20260507003954 54 229 8.0 11.0 0.00 0.44 0.44 99 1005.8
20260507003448 54 232 9.0 13.0 0.00 0.44 0.44 99 1005.6
20260507002944 55 231 9.0 11.0 0.00 0.44 0.44 99 1006.0
20260507002440 55 236 13.0 16.0 0.00 0.44 0.44 99 1006.2
20260507001937 55 231 14.0 15.0 0.00 0.44 0.44 99 1006.1
20260507001434 55 221 13.0 14.0 0.00 0.44 0.44 99 1006.2
20260507000932 55 249 9.0 14.0 0.00 0.44 0.44 99 1006.2
20260507000427 55 256 12.0 15.0 0.00 0.44 0.44 99 1006.2
20260506235923 54 206 8.0 10.0 0.00 0.44 0.44 99 1006.1
20260506235420 54 222 8.0 9.0 0.07 0.44 0.44 99 1006.2
20260506234910 54 226 9.0 10.0 0.07 0.44 0.44 99 1006.2
20260506234408 54 257 10.0 11.0 0.00 0.43 0.43 99 1006.2
20260506233906 54 234 13.0 16.0 0.00 0.43 0.43 99 1006.5
20260506233401 54 239 9.0 11.0 0.05 0.43 0.43 99 1006.3
20260506232858 54 236 11.0 13.0 0.12 0.43 0.43 99 1006.4
20260506232354 54 252 11.0 14.0 0.07 0.42 0.42 99 1006.6
20260506231850 54 246 8.0 10.0 0.00 0.41 0.41 99 1006.4
20260506231348 54 222 13.0 15.0 0.00 0.41 0.41 99 1006.4
20260506230846 55 242 13.0 17.0 0.00 0.41 0.41 99 1006.4
20260506230342 54 238 10.0 11.0 0.00 0.41 0.41 99 1006.4
20260506225838 55 261 11.0 13.0 0.05 0.41 0.41 99 1006.5
20260506225336 55 235 15.0 18.0 0.12 0.41 0.41 99 1006.4
20260506224833 55 242 13.0 18.0 0.12 0.40 0.40 99 1006.5
20260506224330 55 230 13.0 15.0 0.12 0.39 0.39 99 1006.7
20260506223826 55 210 10.0 11.0 0.19 0.38 0.38 99 1006.9
20260506223321 55 251 7.0 13.0 0.24 0.37 0.37 99 1006.7
20260506222819 55 255 7.0 8.0 0.31 0.36 0.36 99 1006.6
20260506222314 55 195 14.0 18.0 0.24 0.34 0.34 99 1006.8
20260506221813 55 206 14.0 18.0 0.24 0.31 0.31 99 1006.9
20260506221310 55 241 14.0 16.0 0.19 0.29 0.29 99 1006.7
20260506220807 55 247 17.0 20.0 0.17 0.28 0.28 99 1006.8
20260506220302 55 222 15.0 20.0 0.17 0.26 0.26 99 1006.9
20260506215759 55 250 7.0 7.0 0.19 0.25 0.25 99 1007.1
20260506215255 55 218 5.0 5.0 0.19 0.23 0.23 99 1007.0
20260506214751 54 271 7.0 8.0 0.19 0.22 0.22 99 1007.2
20260506214248 54 240 6.0 7.0 0.19 0.20 0.20 99 1007.5
20260506213747 54 257 8.0 10.0 0.12 0.19 0.19 99 1007.5
20260506213243 54 243 5.0 7.0 0.07 0.18 0.18 99 1007.4
20260506212740 54 225 7.0 8.0 0.05 0.17 0.17 99 1007.2
20260506212236 54 231 8.0 9.0 0.12 0.17 0.17 99 1007.4
20260506211731 54 263 9.0 10.0 0.19 0.16 0.16 99 1007.5
20260506211228 54 231 8.0 11.0 0.17 0.15 0.15 99 1007.5
20260506210725 54 215 8.0 9.0 0.12 0.13 0.13 99 1007.5
20260506210222 54 213 14.0 16.0 0.19 0.12 0.12 99 1007.7
20260506205719 54 243 10.0 13.0 0.19 0.11 0.11 99 1007.6
20260506205214 54 255 11.0 15.0 0.14 0.10 0.10 99 1007.9
20260506204712 54 230 9.0 9.0 0.05 0.08 0.08 99 1007.9
20260506204209 54 242 8.0 13.0 0.12 0.08 0.08 99 1007.7
20260506203707 54 235 7.0 8.0 0.12 0.07 0.07 99 1007.6
20260506203204 54 216 5.0 6.0 0.12 0.06 0.06 99 1007.7
20260506202702 54 237 11.0 13.0 0.19 0.05 0.05 99 1007.7
20260506202157 54 257 7.0 10.0 0.17 0.04 0.04 99 1007.7
20260506201654 55 228 10.0 13.0 0.12 0.03 0.03 99 1007.7
20260506201150 55 227 11.0 13.0 0.07 0.01 0.01 99 1007.8
20260506200648 55 227 13.0 14.0 0.07 0.01 0.01 98 1007.7
20260506200144 56 206 11.0 14.0 0.00 0.00 0.00 97 1007.3
20260506195641 56 222 8.0 9.0 0.00 0.00 0.00 96 1007.9
20260506195137 56 246 9.0 10.0 0.00 0.00 0.00 95 1007.7
20260506194635 57 195 12.0 16.0 0.00 0.00 0.00 94 1007.9
20260506194131 57 235 14.0 15.0 0.00 0.00 0.00 93 1007.8
20260506193629 57 250 11.0 14.0 0.00 0.00 0.00 93 1007.8
20260506193126 57 227 9.0 15.0 0.00 0.00 0.00 93 1007.6
20260506192622 58 238 10.0 13.0 0.00 0.00 0.00 92 1008.1
20260506192118 58 226 9.0 10.0 0.00 0.00 0.00 91 1008.0
20260506191615 58 261 9.0 10.0 0.00 0.00 0.00 91 1008.0
20260506191111 59 229 11.0 16.0 0.00 0.00 0.00 89 1008.0
20260506190609 59 245 14.0 17.0 0.00 0.00 0.00 88 1008.0
20260506190106 59 226 16.0 20.0 0.00 0.00 0.00 87 1008.2
20260506185603 59 201 15.0 20.0 0.00 0.00 0.00 87 1007.8
20260506185059 60 271 14.0 17.0 0.00 0.00 0.00 86 1007.6
20260506184556 60 223 10.0 13.0 0.00 0.00 0.00 86 1007.6
20260506184054 61 220 14.0 18.0 0.00 0.00 0.00 85 1007.7
20260506183549 60 239 7.0 9.0 0.00 0.00 0.00 86 1007.7
20260506183046 59 230 8.0 11.0 0.00 0.00 0.00 87 1008.0
20260506182544 59 211 15.0 16.0 0.00 0.00 0.00 88 1008.0
20260506182041 59 213 9.0 13.0 0.00 0.00 0.00 88 1008.3
20260506181539 59 248 11.0 15.0 0.00 0.00 0.00 88 1008.3
20260506181035 59 229 11.0 15.0 0.00 0.00 0.00 87 1008.1
20260506180532 59 247 13.0 14.0 0.00 0.00 0.00 88 1008.3
20260506180029 60 214 6.0 10.0 0.00 0.00 0.00 89 1008.3
20260506175525 60 213 9.0 10.0 0.00 0.00 0.00 88 1008.3
20260506175021 59 193 9.0 10.0 0.00 0.00 0.00 88 1008.5
20260506174520 60 219 11.0 13.0 0.00 0.00 0.00 87 1008.2
20260506174016 60 235 9.0 10.0 0.00 0.00 0.00 88 1008.6
20260506173514 60 217 5.0 6.0 0.00 0.00 0.00 88 1008.7
20260506173010 60 215 8.0 8.0 0.00 0.00 0.00 88 1008.7
20260506172508 60 247 7.0 8.0 0.00 0.00 0.00 88 1008.8
20260506172004 59 229 9.0 9.0 0.00 0.00 0.00 88 1008.7
20260506171501 60 220 11.0 15.0 0.00 0.00 0.00 89 1009.0
20260506170959 60 214 12.0 14.0 0.00 0.00 0.00 88 1008.9
20260506170455 59 209 15.0 20.0 0.00 0.00 0.00 88 1009.2
20260506165948 60 225 9.0 11.0 0.00 0.00 0.00 89 1009.0
20260506165447 60 259 9.0 11.0 0.00 0.00 0.00 88 1009.1
20260506164942 59 205 13.0 16.0 0.00 0.00 0.00 88 1009.0
20260506164439 59 235 9.0 11.0 0.00 0.00 0.00 89 1009.4
20260506163937 59 208 10.0 11.0 0.00 0.00 0.00 88 1009.3
20260506163431 60 241 5.0 7.0 0.00 0.00 0.00 89 1009.2
20260506162926 59 259 7.0 9.0 0.00 0.00 0.00 89 1009.4
20260506162424 59 233 10.0 11.0 0.00 0.00 0.00 89 1009.6
20260506161921 59 241 10.0 13.0 0.00 0.00 0.00 89 1009.6
20260506161420 59 243 12.0 15.0 0.00 0.00 0.00 89 1009.7
20260506160911 60 240 7.0 7.0 0.00 0.00 0.00 88 1009.5
20260506160408 60 243 8.0 10.0 0.00 0.00 0.00 88 1009.8
20260506155906 59 212 9.0 11.0 0.00 0.00 0.00 89 1009.7
20260506155403 60 221 10.0 11.0 0.00 0.00 0.00 88 1009.9
20260506153525 61 203 12.0 13.0 0.00 0.00 0.00 86 1009.6
20260506153023 61 213 8.0 8.0 0.00 0.00 0.00 86 1009.6
20260506152519 62 234 8.0 9.0 0.00 0.00 0.00 86 1009.5
20260506152018 61 210 6.0 8.0 0.00 0.00 0.00 86 1009.3
20260506151515 61 254 7.0 10.0 0.00 0.00 0.00 86 1009.2
20260506151012 61 237 10.0 11.0 0.00 0.00 0.00 87 1009.2
20260506150508 61 215 13.0 15.0 0.00 0.00 0.00 86 1009.0
20260506150005 61 215 10.0 11.0 0.00 0.00 0.00 86 1009.3
20260506145502 60 194 7.0 9.0 0.00 0.00 0.00 87 1009.3
20260506144959 60 215 16.0 18.0 0.00 0.00 0.00 86 1009.6
20260506144456 60 222 8.0 9.0 0.00 0.00 0.00 87 1009.6
20260506143954 60 250 9.0 10.0 0.00 0.00 0.00 87 1009.6
20260506143451 60 245 7.0 8.0 0.00 0.00 0.00 88 1009.7
20260506142949 60 198 9.0 11.0 0.00 0.00 0.00 87 1010.0
20260506142447 60 229 6.0 7.0 0.00 0.00 0.00 87 1010.0
20260506141944 61 231 6.0 9.0 0.00 0.00 0.00 86 1010.2
20260506141442 61 195 9.0 10.0 0.00 0.00 0.00 86 1010.2
20260506140941 60 235 7.0 8.0 0.00 0.00 0.00 85 1010.3
20260506140437 60 223 4.0 5.0 0.00 0.00 0.00 85 1010.3
20260506135934 60 251 1.0 2.0 0.00 0.00 0.00 85 1010.1
20260506135431 60 92 2.0 3.0 0.00 0.00 0.00 85 1009.9
20260506134927 60 47 1.0 1.0 0.00 0.00 0.00 85 1009.9
20260506134423 60 74 3.0 3.0 0.00 0.00 0.00 84 1009.9
20260506133920 61 137 3.0 3.0 0.00 0.00 0.00 84 1010.0
20260506133417 61 185 4.0 5.0 0.00 0.00 0.00 85 1009.7
20260506132914 60 241 4.0 5.0 0.00 0.00 0.00 86 1010.1
20260506132411 60 207 5.0 6.0 0.00 0.00 0.00 86 1009.9
20260506131909 60 206 7.0 8.0 0.00 0.00 0.00 86 1009.7
20260506131405 59 223 3.0 3.0 0.00 0.00 0.00 86 1010.0
20260506130902 59 209 3.0 3.0 0.00 0.00 0.00 86 1010.0
20260506130358 59 215 5.0 6.0 0.00 0.00 0.00 88 1009.9
20260506125857 59 192 5.0 7.0 0.00 0.00 0.00 88 1010.3
20260506125355 58 251 4.0 5.0 0.00 0.00 0.00 88 1010.3
20260506124853 58 200 5.0 6.0 0.00 0.00 0.00 88 1010.1
20260506124349 57 233 3.0 3.0 0.00 0.00 0.00 89 1010.2
20260506123847 57 242 2.0 2.0 0.00 0.00 0.00 90 1010.3
20260506123345 57 228 5.0 7.0 0.00 0.00 0.00 90 1010.1
20260506122842 57 217 3.0 5.0 0.00 0.00 0.00 90 1009.9
20260506122339 57 223 7.0 8.0 0.00 0.00 0.00 89 1010.3
20260506121837 57 206 3.0 5.0 0.00 0.00 0.00 90 1010.4
20260506121334 56 215 3.0 3.0 0.00 0.00 0.00 89 1010.8
20260506120831 56 196 3.0 3.0 0.00 0.00 0.00 91 1011.1
20260506120329 56 224 3.0 3.0 0.00 0.00 0.00 90 1011.0
20260506115826 55 252 2.0 2.0 0.00 0.00 0.00 91 1010.7
20260506115324 56 264 4.0 5.0 0.00 0.00 0.00 90 1011.0
20260506114822 55 250 4.0 5.0 0.00 0.00 0.00 91 1011.0
20260506114319 55 225 3.0 3.0 0.00 0.00 0.00 90 1010.9
20260506113818 56 204 2.0 2.0 0.00 0.00 0.00 89 1011.1
20260506113315 55 150 3.0 3.0 0.00 0.00 0.00 90 1011.3
20260506112811 54 37 0.0 1.0 0.00 0.00 0.00 93 1010.7
20260506112309 54 92 2.0 2.0 0.00 0.00 0.00 93 1010.7
20260506111806 54 297 1.0 1.0 0.00 0.00 0.00 93 1010.6
20260506111304 53 177 2.0 2.0 0.00 0.00 0.00 92 1010.6
20260506110801 53 166 2.0 2.0 0.00 0.00 0.00 92 1011.0
20260506110258 54 306 1.0 1.0 0.00 0.00 0.00 92 1010.7
20260506105755 54 7 0.0 1.0 0.00 0.00 0.00 93 1011.0